Location: *
(35.2348°S, 91.3916°E)
Time: 12:15:56
(UTC+00:00)

DELTA 2 R/B (1) - Pass Details

Date: 23 October 2019
Orbit: 790 x 803 km, 39.6° (Epoch: 20 November)

Event Time Altitude Azimuth Distance (km) Brightness Sun altitude
Rises 14:16:38 0° 257° (WSW) 3,324 8.0 -23.2°
Reaches altitude 10° 14:19:11 10° 252° (WSW) 2,394 7.0 -23.7°
Maximum altitude 14:24:46 58° 173° (S) 943 4.0 -24.6°
Enters shadow 14:26:20 43° 120° (ESE) 1,127 4.1 -24.8°
